STARLINK-34822

Satellite information

Favourite Embed

Satellite Type and Status

PAYLOADIN ORBIT

Key statistics

Satellite STARLINK-34822 at a glance.

Uptime

27

Days in orbit

Revolutions

≈ 15.7

Per day

Orbit

LEO

Low Earth Orbit

Inclination

53.2

Latest

Satellite identification and parameters

Extended collection of information and parameters for STARLINK-34822.

Object identification

Identified? True

Debris? False

Object name: STARLINK-34822

International designator: 2025-167J

Object number (NORAD): 65086

Object ID (CCSDS): 65086

Country: UNITED STATES OF AMERICA (US)

Current information (Y/N): Y

RCS size: LARGE

Orbital parameters

Period: 91.464 minutes

Inclination: 53.1581 deg

SMA: 6724.525 km

Apoapsis: 347.497 km

Periapsis: 345.283 km

RAAN: 197.857 deg

Eccentricy: 0.00016466

Argument of periapsis: 46.9097 deg

Mean anomaly: 313.2061 deg

Mean motion: 15.74382743 rev/day

Mean motion (dot): 0.0055342 rev/day2

B* drag term: 0.0035110706 1/REarth

Two-line elements (TLE)

Creation date: Aug. 31, 2025, 2:26 a.m.

Reference frame: TEME

Reference center: EARTH

Epoch: Aug. 30, 2025, 2:36 p.m. UTC

TLE line 0: 0 STARLINK-34822

TLE line 1: 1 65086U 25167J 25242.60880959 .00553420 00000-0 35111-2 0 9998

TLE line 2: 2 65086 53.1581 197.8570 0001647 46.9097 313.2061 15.74382743 4172

Live tracking on map

Real-time ground track for satellite STARLINK-34822.

In-orbit conjunctions

There are no conjunctions computed for STARLINK-34822, at the moment. Check back to stay up to date, as we update our databases every day.

Go to all conjunctions

Associated space launch

A batch of 28 satellites for the Starlink mega-constellation - SpaceX's project for space-based Internet communication system.

STARLINK-34822 was lifted into orbit during the mission ‘Falcon 9 Block 5 | Starlink Group 10-30’, on board a Falcon 9 space rocket.

The launch took place on Aug. 4, 2025, 7:57 a.m. from Space Launch Complex 40.

For more information about the launch, click the button.

Launch to space Falcon 9 Block 5 | Starlink Group 10-30
Falcon 9 Block 5 | Starlink Group 10-30

Agency: SpaceX

Status: Launch Successful

Launch date: Aug. 4, 2025, 7:57 a.m. UTC

Rocket: Falcon 9

Launch pad: Space Launch Complex 40

Location: Cape Canaveral SFS, FL, USA

...

Latest news about this satellite

News about space launch
Live coverage: Starlink mission marks SpaceX’s 450th flight-proven Falcon booster launch

The Starlink 10-30 mission will add 28 more satellites to SpaceX’s low Earth orbit megaconstellation. Liftoff of the Falcon 9 rocket from pad 40 at Cape Canaveral Space Force Station is set for 1:03 a.m. EDT (0503 UTC) on Monday.


Newsletter sign-up

Weekly statistics, charts and insights to help you stay on top of the space industry.